Regional Weather Roundup
Issued by NWS Wilmington, NC

Home | Current Version | Previous Version | Text Only | Print | Product List | Glossary On
Versions: 1 2 3 4 5 6 7 8 9 10 11 12 13 14 15 16 17 18 19 20 21 22 23 24 25 26 27 28 29 30 31 32 33 34 35 36 37 38 39 40 41 42 43 44 45 46 47 48 49 50
000
ASUS42 KILM 182313
RWRILM
RWRILM
REGIONAL HOURLY WEATHER ROUNDUP
NATIONAL WEATHER SERVICE WILMINGTON NC
700 PM EDT FRI AUG 18 2017

NOTE: "FAIR" INDICATES FEW OR NO CLOUDS BELOW 12,000 FEET WITH NO
SIGNIFICANT WEATHER AND/OR OBSTRUCTIONS TO VISIBILITY.

...............WFO WILMINGTON COUNTY WARNING AREA...............

......COASTAL NC AND SC COUNTIES......

CITY           SKY/WX    TMP DP  RH WIND       PRES   REMARKS
WILMINGTON     MOSUNNY   89  76  65 SW9G20    29.89S HX 100
N MYRTLE BEACH SUNNY     86  80  82 SW16      29.91R HX 101
MYRTLE BEACH   NOT AVBL

......INLAND NC AND SC COUNTIES.......

CITY           SKY/WX    TMP DP  RH WIND       PRES   REMARKS
LUMBERTON      SUNNY     89  74  60 S7        29.86S HX  98
ELIZABETHTOWN  NOT AVBL
WHITEVILLE     MOSUNNY   89  78  70 S9        29.89R HX 103
FLORENCE       SUNNY     91  76  61 S10       29.88S HX 103
DARLINGTON     SUNNY     91  75  59 S14       29.88S HX 101
KINGSTREE      FAIR      90  72  55 S3        29.90R HX  96
HARTSVILLE     FAIR      90  72  55 SW6       29.88R HX  96
BENNETTSVILLE  FAIR      95  73  49 S7        29.87R HX 105
CONWAY         FAIR      90  73  58 S3        29.90S HAZE    HX  98
GEORGETOWN     FAIR      88  79  74 S9G16     29.93R HX 102
MARION         FAIR      90  72  55 SW9       29.89S HX  96

....................REST OF NORTH CAROLINA......................

.........EASTERN NC.........

CITY           SKY/WX    TMP DP  RH WIND       PRES   REMARKS
CAPE HATTERAS  CLOUDY    85  82  91 SW14      29.89S HX 102
JACKSONVILLE   CLOUDY    88  80  77 S9        29.88S HX 104
MOREHEAD CITY  CLEAR     85  83  94 SW17      29.89S HX 104
KENANSVILLE    SUNNY     91  75  59 SW3       29.86S HX 102
NEW BERN       CLOUDY    86  79  79 S9        29.88S HX  99
ELIZABETH CITY CLOUDY    84  78  82 S8        29.85S HX  95

.........CENTRAL NC.........

CITY           SKY/WX    TMP DP  RH WIND       PRES   REMARKS
RALEIGH DURHAM PTSUNNY   92  73  53 S8        29.84S HX 100
ROCKY MOUNT    SUNNY     90  76  63 S7        29.84S HX 101
ROANOKE RAPIDS NOT AVBL
FAYETTEVILLE   SUNNY     93  74  53 S10       29.85S HX 103
HOFFMAN        PTSUNNY   92  73  54 S14       29.86S HX 101

.........WESTERN NC.........

CITY           SKY/WX    TMP DP  RH WIND       PRES   REMARKS
CHARLOTTE      PTSUNNY   89  74  60 VRB6      29.90R HX  98
GREENSBORO     PTSUNNY   87  74  64 W9        29.87R HX  95
HICKORY        NOT AVBL
BOONE          NOT AVBL
ASHEVILLE      NOT AVBL

.....................REST OF SOUTH CAROLINA.....................

.........EASTERN SC.........

CITY           SKY/WX    TMP DP  RH WIND       PRES   REMARKS
CHARLESTON     MOSUNNY   88  76  67 S13       29.92R HX  99
BEAUFORT MCAS  SUNNY     90  80  72 S9        29.93R HX 107
HILTON HEAD    SUNNY     88  79  74 S14       29.95R HX 102

.........CENTRAL SC.........

CITY           SKY/WX    TMP DP  RH WIND       PRES   REMARKS
COLUMBIA       MOSUNNY   94  71  47 SW9       29.88S HX 101
ORANGEBURG     SUNNY     91  73  55 S8        29.90S HX  99
SUMTER SHAW    SUNNY     94  72  49 SW13      29.86S HX 101

.........WESTERN SC.........

CITY           SKY/WX    TMP DP  RH WIND       PRES   REMARKS
GREENVILLE     NOT AVBL
ROCK HILL      PTSUNNY   87  74  64 S6        29.90R HX  95
ANDERSON       SUNNY     90  68  48 SW14      29.92R HX  94
CLEMSON        NOT AVBL
GREENWOOD      SUNNY     89  69  51 W9        29.93S HX  93


...................COASTAL AND OFFSHORE REPORTS..................

................LOCAL PIERS AND NC RESERVE................


STATION/POSITION TIME  SKY/WX   TEMP    WIND        PRES    VSBY
                                AIR SEA DIR/SP/G
                 (UTC)          (F)     (DEG/KT/KT) (MB)    (MI)
JOHNY MRCER PIER 2248            85 84  190/ 17/ 18 1011.4S
NC RESRV MASNBRO NOT AVBL
OCEAN CREST PIER NOT AVBL
SPRINGMAID  PIER 2248                               1012.2R


................COASTAL AND OFFSHORE BUOYS................


STATION/POSITION TIME  SKY/WX   TEMP    WIND        PRES    VSBY
                                AIR SEA DIR/SP/G
                 (UTC)          (F)     (DEG/KT/KT) (MB)    (MI)
DIMNDSHOAL 41025 2150            86 86  210/ 16/ 19 1012.0
WVE H/P(F/S)=  3/ 5 SWL H/P/D(F/S/D)=  2/ 80/ 9

CAPE LOOKOUT     2200            85     200/ 13/ 16 1012.1F
ONSLOW BAY 41036 NOT AVBL
ONSLOW BAY 41064 2208            83 84  220/ 14/ 16 1012.6F
ONSLOW BAY 41159 2243               84                N/A
WVE H/P(F/S)=  3/ 5

MASNBO INL 41110 2259               85                N/A
WVE H/P(F/S)=  3/ 4

WILM HARBR 41108 2300               84                N/A
WVE H/P(F/S)=  3/ 5

27SE WRITB 41037 2208            85 84  200/ 16/ 23 1012.3F
FRYING PAN 41013 2240            84 85  210/ 16/ 19 1012.9S
SUNST NRSH 41024 2208            85 87  210/ 14/ 17 1012.2S
CAPRS NRSH 41029 2208            84 86  210/ 16/ 19 1012.8R
EDISTO     41004 2240            85 86  210/ 14/ 16 1013.5R


..........OFFSHORE BUOYS BEYOND 100 NM OFFSHORE...........
.....IN A TRIANGLE---HAT TO BERMUDA TO BAHAMAS TO HAT.....


STATION/POSITION TIME  SKY/WX   TEMP    WIND        PRES    VSBY
                                AIR SEA DIR/SP/G
                 (UTC)          (F)     (DEG/KT/KT) (MB)    (MI)
150E HAT   41001 2240               82  180/ 14/ 17 1015.3R
W BERMUDA  41048 2240            80 83  260/ 10/ 14 1017.6R
ATLANTIC S 41049 2150            84 86  100/  6/  8 1019.6
WVE H/P(F/S)=  5/ 8 SWL H/P/D(F/S/D)=  5/ 90/ 8

E BAHAMAS  41046 2240            84 84   90/ 12/ 16 1016.7R
NE BAHAMAS 41047 2240            85 85  120/  8/ 10 1017.8R
120E CANVRL41010 2240            85 87  160/ 12/ 14 1015.7R

END



USA.gov is the U.S. government's official web portal to all federal, state and local government web resources and services.